Regional Weather Roundup
Issued by NWS Sterling, VA

Home | Current Version | Previous Version | Graphics & Text | Print | Product List | Glossary On
Versions: 1 2 3 4 5 6 7 8 9 10 11 12 13 14 15 16 17 18 19 20 21 22 23 24 25 26 27 28 29 30 31 32 33 34 35 36 37 38 39 40 41 42 43 44 45 46 47 48 49 50
000
ASUS41 KLWX 080310
RWRLWX

REGIONAL WEATHER ROUNDUP
NATIONAL WEATHER SERVICE BALTIMORE MD/WASHINGTON DC
1000 PM EST SUN FEB 07 2016

Note: "FAIR" indicates few or no clouds below 12,000 feet
with no significant weather and/or obstructions to visibility.
 TC=TEMPERATURE CELSIUS

 * =Non NWS site. Station does not report precipitation (e.g. rain,
    snow, etc.), thunder, or fog.

DCZ001-MDZ009-015-VAZ040>042-051-053>054-080400-
WASHINGTON METRO

CITY           SKY/WX    TMP DP  RH WIND       PRES   REMARKS
WASHINGTON NAT CLOUDY    39  24  55 N9        29.91F
DULLES         MOCLDY    37  22  54 N7        29.91F
ANDREWS AFB    CLOUDY    34  23  63 N7        29.89S
FT BELVOIR     FAIR      39  20  46 NW5       29.91F
QUANTICO       FAIR      41  20  43 N8        29.92F
COLLEGE PARK*  FAIR      37  23  56 N3        29.91S
LEESBURG*      FAIR      36  28  75 N7        29.92F
GAITHERSBURG*  CLOUDY    34  19  55 CALM      29.93F

$$

MDZ006>007-011-014-080400-
BALTIMORE METRO

CITY           SKY/WX    TMP DP  RH WIND       PRES   REMARKS
BWI AIRPORT    CLOUDY    39  21  48 N3        29.90F
MD SCIENCE CTR   N/A     41  22  46 MISG      29.90F
ANNAPOLIS      CLOUDY    40  26  57 N6        29.90F
FORT MEADE*    CLOUDY    37  23  56 N3        29.93F

$$

MDZ012-015-019>023-080400-
MARYLAND EASTERN SHORE

CITY           SKY/WX    TMP DP  RH WIND       PRES   REMARKS
OCEAN CITY     CLOUDY    41  36  82 N15G24    29.78F
SALISBURY      CLOUDY    40  32  73 N13       29.80F
BAY BRIDGE AP*   N/A     37  27  65 CALM      29.90F
CAMBRIDGE*     CLOUDY    39  27  60 N12       29.85F
EASTON*        CLOUDY    39  27  62 NE8       29.91F

$$

MDZ017>025-080400-
SOUTHERN MARYLAND

CITY           SKY/WX    TMP DP  RH WIND       PRES   REMARKS
PATUXENT RIVER CLOUDY    40  27  59 N15       29.85F
ST INIGOES     CLOUDY    41  27  57 N8G18     29.84F
LEONARDTOWN*   CLOUDY    39  27  60 N5        29.87F

$$

MDZ003>005-080400-
NORTH CENTRAL MARYLAND

CITY           SKY/WX    TMP DP  RH WIND       PRES   REMARKS
FREDERICK*     CLOUDY    30  27  86 CALM      29.95F
HAGERSTOWN APT CLOUDY    34  21  59 NW3       29.91F
WESTMINSTER*   CLOUDY    34  27  75 N3        29.89F

$$

MDZ501>502-080400-
WESTERN MARYLAND

CITY           SKY/WX    TMP DP  RH WIND       PRES   REMARKS
OAKLAND*       CLOUDY    34  21  60 CALM      29.84F
CUMBERLAND*    CLOUDY    32  28  86 CALM      29.95F

$$

VAZ025>031-080400-
SHENANDOAH VALLEY

CITY           SKY/WX    TMP DP  RH WIND       PRES   REMARKS
WINCHESTER*    FAIR      28  23  80 CALM      29.91F
FRONT ROYAL*   FAIR      30  23  74 CALM      29.90F
LURAY*         FAIR      28  25  86 CALM      29.90F
NEW MARKET*    FAIR      28  25  88 CALM      29.90F
STAUNTON*      FAIR      31  26  83 CALM      29.91F
WAYNESBORO*    FAIR      34  22  62 W3        29.88F

$$

WVZ021-048>050-054>055-080400-
EASTERN WEST VIRGINIA PANHANDLE

CITY           SKY/WX    TMP DP  RH WIND       PRES   REMARKS
MARTINSBURG    FAIR      26  21  81 CALM      29.91F
PETERSBURG*    FAIR      29  26  87 CALM      29.92S

$$

VAZ036>039-050-080400-
CENTRAL FOOTHILLS

CITY           SKY/WX    TMP DP  RH WIND       PRES   REMARKS
CHARLOTTESVILL FAIR      36  22  56 N3        29.89F
CULPEPER*      FAIR      30  22  73 CALM      29.91F
ORANGE*        FAIR      36  25  64 N3        29.91F
GORDONSVILLE*  FAIR      38  24  56 NE5       29.89F
WARRENTON*     FAIR      30  26  84 CALM      29.90F

$$

VAZ055>057-080400-
NORTH AND CENTRAL PIEDMONT

CITY           SKY/WX    TMP DP  RH WIND       PRES   REMARKS
FREDERICKSBRG* FAIR      38  22  53 CALM      29.90S
STAFFORD*      FAIR      34  22  61 N7        29.94F

$$

NCZ024-NYZ072-PAZ021-071-VAZ022-071-080400-
OTHER REGIONAL OBSERVATIONS

CITY           SKY/WX    TMP DP  RH WIND       PRES   REMARKS
NEW YORK CITY  CLOUDY    39  27  62 NE5       29.98F
PHILADELPHIA   CLOUDY    40  23  50 NE13      29.92F
PITTSBURGH     PTCLDY    39  22  50 S3        29.86F
ROANOKE        FAIR      34  24  67 NW3       29.90F
RICHMOND       CLOUDY    38  21  50 N12       29.85F
RALEIGH        CLOUDY    41  22  46 VRB7      29.86S

$$

ANZ530>537-080400-
MARINE OBSERVATIONS

STATION/POSITION TIME  TEMP    WIND        PRES
                       AIR SEA DIR/SP/G
                 (UTC) (F)     (DEG/KT/KT) (MB)
THOMAS PT LIGHT  0300           10/ 15       N/A
BALT KEY BRIDGE  0200   40                 1013.3F
COVE POINT       0200   39                 1012.5F
LEWISETTA        0200   41 42              1010.9F
SOLOMONS ISLAND  0200   41 41                N/A

$$




USA.gov is the U.S. government's official web portal to all federal, state and local government web resources and services.